KPF69 KOPF-KAUS

Flight info

Callsign KPF69
Flight time 2h 50m
Altitude 40000
Route BNGOS4 DOLIE Y280 REMIS BLVNS MOLLR DBOYS WLEEE7
Aircraft CL60/M-SBDE1E2E3FGHIJ1J4J5J7M3RWXYZ/LB1V1D1

Departure

Time 2026-05-03 21:34
Airport Miami-Opa Locka Executive Airport (KOPF)

Arrival

Time 2026-05-04 00:25
Airport Austin Bergstrom International Airport (KAUS)
Time Latitude Longitude Altitude Speed Heading
2026-05-03 21:08 25.91086 -80.26907 11 ft 0 kts 90°
2026-05-03 21:27 25.91087 -80.26861 11 ft 9 kts 89°
2026-05-03 21:27 25.91108 -80.26799 11 ft 9 kts 83°
2026-05-03 21:27 25.91120 -80.26760 11 ft 1 kts 24°
2026-05-03 21:27 25.91124 -80.26759 11 ft 0 kts 12°
2026-05-03 21:28 25.91162 -80.26766 11 ft 8 kts 318°
2026-05-03 21:28 25.91187 -80.26826 11 ft 8 kts 305°
2026-05-03 21:28 25.91223 -80.26885 11 ft 9 kts 279°
2026-05-03 21:28 25.91217 -80.26994 11 ft 20 kts 266°
2026-05-03 21:29 25.91208 -80.27162 11 ft 22 kts 266°
2026-05-03 21:29 25.91202 -80.27347 8 ft 25 kts 267°
2026-05-03 21:29 25.91193 -80.27545 8 ft 24 kts 266°
2026-05-03 21:29 25.91186 -80.27667 8 ft 14 kts 266°
2026-05-03 21:30 25.91179 -80.27777 8 ft 14 kts 266°
2026-05-03 21:30 25.91174 -80.27884 8 ft 14 kts 267°
2026-05-03 21:30 25.91169 -80.27992 8 ft 14 kts 267°
2026-05-03 21:30 25.91164 -80.28123 8 ft 21 kts 267°
2026-05-03 21:31 25.91156 -80.28301 8 ft 23 kts 266°
2026-05-03 21:31 25.91147 -80.28490 8 ft 23 kts 266°
2026-05-03 21:31 25.91144 -80.28545 9 ft 4 kts 266°
2026-05-03 21:31 25.91140 -80.28624 10 ft 16 kts 266°
2026-05-03 21:32 25.91135 -80.28741 11 ft 10 kts 267°
2026-05-03 21:32 25.91131 -80.28801 11 ft 5 kts 274°
2026-05-03 21:32 25.91159 -80.28838 11 ft 5 kts 358°
2026-05-03 21:32 25.91168 -80.28838 11 ft 3 kts 358°
2026-05-03 21:33 25.91233 -80.28841 11 ft 6 kts 356°
2026-05-03 21:33 25.91267 -80.28828 11 ft 6 kts 79°
2026-05-03 21:33 25.91268 -80.28795 11 ft 20 kts 87°
2026-05-03 21:33 25.91285 -80.28407 9 ft 94 kts 85°
2026-05-03 21:34 25.91337 -80.27345 102 ft 167 kts 84°
2026-05-03 21:34 25.91478 -80.26028 888 ft 183 kts 79°
2026-05-03 21:34 25.91854 -80.24590 1645 ft 208 kts 60°
2026-05-03 21:34 25.92812 -80.23252 1953 ft 240 kts 41°
2026-05-03 21:35 25.94388 -80.22441 1953 ft 255 kts
2026-05-03 21:35 25.96180 -80.22524 1963 ft 255 kts 353°
2026-05-03 21:35 25.97927 -80.22868 1964 ft 256 kts 342°
2026-05-03 21:35 25.99406 -80.23988 1966 ft 260 kts 310°
2026-05-03 21:36 26.00117 -80.25822 1967 ft 263 kts 279°
2026-05-03 21:36 26.00245 -80.27885 1964 ft 265 kts 273°
2026-05-03 21:36 26.00305 -80.29945 1964 ft 265 kts 273°
2026-05-03 21:36 26.00359 -80.31979 1964 ft 266 kts 273°
2026-05-03 21:37 26.00403 -80.34053 1965 ft 266 kts 273°
2026-05-03 21:37 26.00444 -80.36111 1964 ft 266 kts 273°
2026-05-03 21:37 26.00484 -80.38158 1964 ft 265 kts 272°
2026-05-03 21:37 26.00519 -80.40222 1965 ft 265 kts 273°
2026-05-03 21:38 26.00550 -80.42287 1967 ft 265 kts 273°
2026-05-03 21:38 26.00583 -80.44332 1966 ft 266 kts 273°
2026-05-03 21:38 26.00624 -80.46410 1964 ft 265 kts 273°
2026-05-03 21:38 26.00667 -80.48477 1965 ft 265 kts 273°
2026-05-03 21:39 26.00712 -80.50527 1964 ft 265 kts 273°
2026-05-03 21:39 26.00752 -80.52578 1964 ft 265 kts 273°
2026-05-03 21:39 26.00788 -80.54637 1963 ft 265 kts 273°
2026-05-03 21:39 26.00821 -80.56703 1966 ft 265 kts 273°
2026-05-03 21:40 26.00853 -80.58749 1971 ft 266 kts 273°
2026-05-03 21:40 26.00890 -80.60820 1953 ft 265 kts 273°
2026-05-03 21:40 26.01051 -80.62835 1950 ft 261 kts 289°
2026-05-03 21:40 26.02000 -80.64532 1952 ft 256 kts 318°
2026-05-03 21:41 26.03329 -80.65848 1955 ft 256 kts 320°
2026-05-03 21:41 26.04676 -80.67174 1958 ft 255 kts 321°
2026-05-03 21:41 26.05999 -80.68480 1958 ft 255 kts 321°
2026-05-03 21:41 26.07332 -80.69795 1956 ft 255 kts 320°
2026-05-03 21:42 26.08677 -80.71123 1956 ft 255 kts 321°
2026-05-03 21:42 26.10019 -80.72449 1957 ft 254 kts 321°
2026-05-03 21:42 26.11343 -80.73756 1955 ft 254 kts 321°
2026-05-03 21:42 26.12684 -80.75080 1955 ft 255 kts 321°
2026-05-03 21:43 26.14022 -80.76402 1954 ft 255 kts 321°
2026-05-03 21:43 26.15349 -80.77713 1956 ft 255 kts 321°
2026-05-03 21:43 26.16684 -80.79033 1957 ft 254 kts 320°
2026-05-03 21:43 26.18008 -80.80343 1960 ft 254 kts 321°
2026-05-03 21:44 26.19327 -80.81647 1961 ft 253 kts 321°
2026-05-03 21:44 26.20666 -80.82971 1962 ft 253 kts 321°
2026-05-03 21:44 26.21983 -80.84274 1957 ft 253 kts 320°
2026-05-03 21:44 26.23298 -80.85577 1957 ft 253 kts 320°
2026-05-03 21:45 26.24629 -80.86894 1962 ft 253 kts 321°
2026-05-03 21:45 26.25950 -80.88202 1960 ft 253 kts 320°
2026-05-03 21:45 26.27267 -80.89508 1963 ft 254 kts 321°
2026-05-03 21:45 26.28591 -80.90820 1959 ft 254 kts 321°
2026-05-03 21:46 26.29912 -80.92130 1960 ft 254 kts 321°
2026-05-03 21:46 26.31278 -80.93484 2028 ft 269 kts 321°
2026-05-03 21:46 26.32689 -80.94879 3221 ft 277 kts 319°
2026-05-03 21:46 26.34058 -80.96239 4868 ft 267 kts 316°
2026-05-03 21:47 26.35455 -80.97626 6153 ft 272 kts 315°
2026-05-03 21:47 26.36862 -80.99025 7414 ft 276 kts 314°
2026-05-03 21:47 26.38283 -81.00436 8644 ft 279 kts 314°
2026-05-03 21:47 26.39718 -81.01863 9877 ft 281 kts 314°
2026-05-03 21:48 26.41196 -81.03338 10642 ft 301 kts 314°
2026-05-03 21:48 26.42847 -81.04990 11053 ft 330 kts 314°
2026-05-03 21:48 26.44619 -81.06756 11811 ft 345 kts 314°
2026-05-03 21:48 26.46422 -81.08549 12745 ft 352 kts 315°
2026-05-03 21:49 26.48268 -81.10382 13735 ft 354 kts 314°
2026-05-03 21:49 26.50113 -81.12215 14596 ft 356 kts 314°
2026-05-03 21:49 26.51967 -81.14059 15254 ft 363 kts 313°
2026-05-03 21:49 26.53902 -81.15987 15841 ft 371 kts 313°
2026-05-03 21:50 26.55817 -81.17896 16551 ft 373 kts 313°
2026-05-03 21:50 26.57784 -81.19857 17279 ft 375 kts 313°
2026-05-03 21:50 26.59734 -81.21802 17940 ft 378 kts 313°
2026-05-03 21:50 26.61709 -81.23774 18553 ft 382 kts 313°
2026-05-03 21:51 26.63715 -81.25778 19172 ft 385 kts 313°
2026-05-03 21:51 26.65713 -81.27775 19723 ft 389 kts 313°
2026-05-03 21:51 26.67731 -81.29792 20302 ft 392 kts 313°
2026-05-03 21:51 26.69787 -81.31848 20848 ft 395 kts 313°
2026-05-03 21:52 26.71864 -81.33928 21358 ft 399 kts 312°
2026-05-03 21:52 26.73915 -81.35981 21891 ft 401 kts 312°
2026-05-03 21:52 26.76019 -81.38089 22410 ft 403 kts 312°
2026-05-03 21:52 26.78119 -81.40193 22923 ft 406 kts 312°
2026-05-03 21:53 26.80244 -81.42325 23435 ft 408 kts 312°
2026-05-03 21:53 26.82360 -81.44448 23933 ft 411 kts 312°
2026-05-03 21:53 26.84495 -81.46593 24424 ft 414 kts 311°
2026-05-03 21:53 26.86662 -81.48769 24885 ft 417 kts 311°
2026-05-03 21:54 26.88822 -81.50938 25390 ft 418 kts 311°
2026-05-03 21:54 26.91013 -81.53140 25875 ft 420 kts 311°
2026-05-03 21:54 26.93220 -81.55362 26304 ft 423 kts 311°
2026-05-03 21:54 26.95417 -81.57573 26740 ft 425 kts 311°
2026-05-03 21:55 26.97600 -81.59772 27172 ft 426 kts 310°
2026-05-03 21:55 26.99820 -81.62010 27533 ft 429 kts 310°
2026-05-03 21:55 27.02055 -81.64264 27879 ft 432 kts 310°
2026-05-03 21:55 27.04293 -81.66522 28280 ft 433 kts 310°
2026-05-03 21:56 27.06546 -81.68794 28709 ft 433 kts 310°
2026-05-03 21:56 27.08786 -81.71056 29096 ft 436 kts 310°
2026-05-03 21:56 27.11081 -81.73378 29443 ft 440 kts 310°
2026-05-03 21:56 27.13374 -81.75696 29847 ft 440 kts 309°
2026-05-03 21:57 27.15630 -81.77977 30221 ft 441 kts 309°
2026-05-03 21:57 27.17929 -81.80304 30559 ft 442 kts 309°
2026-05-03 21:57 27.20210 -81.82614 30869 ft 443 kts 309°
2026-05-03 21:57 27.22500 -81.84934 31211 ft 442 kts 308°
2026-05-03 21:58 27.24707 -81.87169 31616 ft 440 kts 308°
2026-05-03 21:58 27.26925 -81.89542 32128 ft 428 kts 302°
2026-05-03 21:58 27.28707 -81.92114 32521 ft 413 kts 293°
2026-05-03 21:58 27.30008 -81.94927 32988 ft 397 kts 284°
2026-05-03 21:59 27.30785 -81.97849 33444 ft 384 kts 275°
2026-05-03 21:59 27.31221 -82.00813 33834 ft 381 kts 273°
2026-05-03 21:59 27.31629 -82.03749 34131 ft 382 kts 272°
2026-05-03 21:59 27.32053 -82.06727 34486 ft 381 kts 273°
2026-05-03 22:00 27.32479 -82.09631 34865 ft 379 kts 273°
2026-05-03 22:00 27.32922 -82.12580 35204 ft 378 kts 273°
2026-05-03 22:00 27.33370 -82.15487 35530 ft 377 kts 273°
2026-05-03 22:00 27.33826 -82.18369 35843 ft 376 kts 274°
2026-05-03 22:01 27.34301 -82.21282 36107 ft 376 kts 274°
2026-05-03 22:01 27.34798 -82.24185 36335 ft 377 kts 275°
2026-05-03 22:01 27.35316 -82.27074 36568 ft 376 kts 275°
2026-05-03 22:01 27.35834 -82.29955 36773 ft 377 kts 275°
2026-05-03 22:02 27.36350 -82.32819 37015 ft 376 kts 275°
2026-05-03 22:02 27.36874 -82.35718 37227 ft 376 kts 275°
2026-05-03 22:02 27.37396 -82.38599 37441 ft 375 kts 275°
2026-05-03 22:02 27.37919 -82.41479 37669 ft 374 kts 275°
2026-05-03 22:03 27.38435 -82.44316 37868 ft 373 kts 275°
2026-05-03 22:03 27.38961 -82.47214 38060 ft 373 kts 275°
2026-05-03 22:03 27.39479 -82.50063 38189 ft 373 kts 275°
2026-05-03 22:03 27.39998 -82.52917 38307 ft 374 kts 275°
2026-05-03 22:04 27.40522 -82.55797 38485 ft 373 kts 275°
2026-05-03 22:04 27.41055 -82.58680 38660 ft 372 kts 274°
2026-05-03 22:04 27.41583 -82.61513 38826 ft 371 kts 275°
2026-05-03 22:04 27.42114 -82.64367 38944 ft 372 kts 275°
2026-05-03 22:05 27.42640 -82.67197 39063 ft 372 kts 275°
2026-05-03 22:05 27.43177 -82.70081 39295 ft 371 kts 275°
2026-05-03 22:05 27.43705 -82.72919 39542 ft 369 kts 275°
2026-05-03 22:05 27.44223 -82.75704 39742 ft 368 kts 275°
2026-05-03 22:06 27.44749 -82.78536 39902 ft 367 kts 274°
2026-05-03 22:06 27.45269 -82.81345 40049 ft 366 kts 275°
2026-05-03 22:06 27.46319 -82.87017 40030 ft 369 kts 274°
2026-05-03 22:07 27.47364 -82.92670 40031 ft 368 kts 275°
2026-05-03 22:07 27.48404 -82.98309 40028 ft 366 kts 275°
2026-05-03 22:08 27.49439 -83.03927 40028 ft 365 kts 275°
2026-05-03 22:08 27.50467 -83.09521 40033 ft 364 kts 274°
2026-05-03 22:09 27.51490 -83.15105 40029 ft 364 kts 275°
2026-05-03 22:10 27.53024 -83.23496 40035 ft 365 kts 274°
2026-05-03 22:10 27.54046 -83.29106 40035 ft 364 kts 274°
2026-05-03 22:11 27.55068 -83.34728 40034 ft 364 kts 275°
2026-05-03 22:11 27.56082 -83.40316 40034 ft 364 kts 275°
2026-05-03 22:12 27.57093 -83.45904 40034 ft 363 kts 274°
2026-05-03 22:12 27.58107 -83.51516 40036 ft 363 kts 275°
2026-05-03 22:13 27.59114 -83.57106 40028 ft 363 kts 274°
2026-05-03 22:13 27.60115 -83.62676 40027 ft 363 kts 274°
2026-05-03 22:14 27.61118 -83.68267 40033 ft 363 kts 274°
2026-05-03 22:14 27.62121 -83.73873 40029 ft 363 kts 274°
2026-05-03 22:15 27.63118 -83.79456 40032 ft 362 kts 274°
2026-05-03 22:15 27.64113 -83.85043 40035 ft 361 kts 274°
2026-05-03 22:16 27.65105 -83.90629 40035 ft 361 kts 274°
2026-05-03 22:16 27.66094 -83.96206 40037 ft 361 kts 274°
2026-05-03 22:17 27.67076 -84.01762 40035 ft 361 kts 274°
2026-05-03 22:17 27.68052 -84.07291 40037 ft 360 kts 274°
2026-05-03 22:18 27.69036 -84.12884 40040 ft 360 kts 275°
2026-05-03 22:18 27.70011 -84.18436 40045 ft 359 kts 274°
2026-05-03 22:19 27.70978 -84.23957 40046 ft 359 kts 274°
2026-05-03 22:19 27.71947 -84.29506 40047 ft 359 kts 274°
2026-05-03 22:20 27.72908 -84.35019 40048 ft 359 kts 274°
2026-05-03 22:20 27.73871 -84.40557 40045 ft 359 kts 275°
2026-05-03 22:21 27.74832 -84.46097 40044 ft 358 kts 275°
2026-05-03 22:21 27.75788 -84.51620 40060 ft 357 kts 274°
2026-05-03 22:22 27.76740 -84.57132 40075 ft 357 kts 274°
2026-05-03 22:22 27.77685 -84.62622 40074 ft 358 kts 274°
2026-05-03 22:23 27.78640 -84.68190 40070 ft 359 kts 274°
2026-05-03 22:23 27.79591 -84.73735 40069 ft 359 kts 274°
2026-05-03 22:24 27.80542 -84.79295 40070 ft 358 kts 274°
2026-05-03 22:24 27.81480 -84.84797 40070 ft 357 kts 274°
2026-05-03 22:25 27.82418 -84.90308 40072 ft 357 kts 274°
2026-05-03 22:25 27.83354 -84.95821 40066 ft 357 kts 273°
2026-05-03 22:26 27.84287 -85.01333 40072 ft 358 kts 274°
2026-05-03 22:26 27.85222 -85.06863 40073 ft 358 kts 274°
2026-05-03 22:27 27.86156 -85.12404 40078 ft 356 kts 274°
2026-05-03 22:27 27.87082 -85.17910 40079 ft 356 kts 274°
2026-05-03 22:28 27.88008 -85.23436 40087 ft 357 kts 274°
2026-05-03 22:28 27.88992 -85.28954 40076 ft 359 kts 275°
2026-05-03 22:29 27.90048 -85.34477 40082 ft 359 kts 276°
2026-05-03 22:29 27.91097 -85.39986 40086 ft 358 kts 276°
2026-05-03 22:30 27.92146 -85.45512 40088 ft 357 kts 275°
2026-05-03 22:30 27.93189 -85.51021 40086 ft 357 kts 276°
2026-05-03 22:31 27.94228 -85.56526 40095 ft 358 kts 275°
2026-05-03 22:31 27.95261 -85.62017 40085 ft 359 kts 276°
2026-05-03 22:32 27.96307 -85.67583 40095 ft 360 kts 275°
2026-05-03 22:32 27.97345 -85.73126 40099 ft 359 kts 275°
2026-05-03 22:33 27.98373 -85.78624 40113 ft 358 kts 275°
2026-05-03 22:33 27.99407 -85.84170 40102 ft 358 kts 275°
2026-05-03 22:34 28.00429 -85.89667 40101 ft 358 kts 275°
2026-05-03 22:34 28.01453 -85.95187 40113 ft 358 kts 275°
2026-05-03 22:35 28.02481 -86.00742 40113 ft 359 kts 275°
2026-05-03 22:35 28.03498 -86.06256 40108 ft 359 kts 276°
2026-05-03 22:36 28.04518 -86.11796 40108 ft 359 kts 276°
2026-05-03 22:36 28.05542 -86.17370 40114 ft 359 kts 276°
2026-05-03 22:37 28.06553 -86.22888 40110 ft 359 kts 276°
2026-05-03 22:37 28.07569 -86.28451 40095 ft 361 kts 276°
2026-05-03 22:38 28.08582 -86.34008 40102 ft 360 kts 276°
2026-05-03 22:38 28.09597 -86.39588 40092 ft 360 kts 276°
2026-05-03 22:39 28.10611 -86.45176 40110 ft 360 kts 276°
2026-05-03 22:39 28.11614 -86.50723 40108 ft 360 kts 276°
2026-05-03 22:40 28.12623 -86.56315 40111 ft 361 kts 276°
2026-05-03 22:40 28.13627 -86.61899 40111 ft 362 kts 277°
2026-05-03 22:41 28.14636 -86.67521 40101 ft 363 kts 275°
2026-05-03 22:41 28.15640 -86.73130 40108 ft 363 kts 276°
2026-05-03 22:42 28.16641 -86.78727 40103 ft 362 kts 276°
2026-05-03 22:42 28.17637 -86.84319 40111 ft 362 kts 277°
2026-05-03 22:43 28.18635 -86.89937 40111 ft 362 kts 276°
2026-05-03 22:43 28.19629 -86.95544 40113 ft 363 kts 276°
2026-05-03 22:44 28.20627 -87.01191 40113 ft 363 kts 277°
2026-05-03 22:44 28.21613 -87.06778 40110 ft 363 kts 276°
2026-05-03 22:45 28.22606 -87.12425 40112 ft 363 kts 276°
2026-05-03 22:45 28.23586 -87.18012 40113 ft 363 kts 277°
2026-05-03 22:46 28.24568 -87.23627 40112 ft 363 kts 277°
2026-05-03 22:46 28.25553 -87.29276 40112 ft 363 kts 277°
2026-05-03 22:47 28.26526 -87.34866 40112 ft 362 kts 277°
2026-05-03 22:47 28.27502 -87.40489 40113 ft 363 kts 277°
2026-05-03 22:48 28.28475 -87.46113 40111 ft 363 kts 277°
2026-05-03 22:48 28.29444 -87.51729 40113 ft 363 kts 277°
2026-05-03 22:49 28.30415 -87.57365 40111 ft 364 kts 277°
2026-05-03 22:49 28.31388 -87.63034 40113 ft 364 kts 278°
2026-05-03 22:50 28.32356 -87.68686 40111 ft 365 kts 277°
2026-05-03 22:50 28.33322 -87.74345 40112 ft 365 kts 277°
2026-05-03 22:51 28.34286 -87.80000 40110 ft 364 kts 277°
2026-05-03 22:51 28.35243 -87.85633 40112 ft 364 kts 277°
2026-05-03 22:52 28.36199 -87.91283 40112 ft 365 kts 277°
2026-05-03 22:52 28.37156 -87.96945 40113 ft 365 kts 277°
2026-05-03 22:53 28.38115 -88.02637 40114 ft 365 kts 278°
2026-05-03 22:53 28.39232 -88.08270 40114 ft 367 kts 279°
2026-05-03 22:54 28.40384 -88.13912 40112 ft 366 kts 279°
2026-05-03 22:54 28.41532 -88.19553 40116 ft 365 kts 279°
2026-05-03 22:55 28.42674 -88.25172 40114 ft 366 kts 279°
2026-05-03 22:55 28.43813 -88.30797 40113 ft 366 kts 279°
2026-05-03 22:56 28.44956 -88.36452 40115 ft 366 kts 279°
2026-05-03 22:56 28.46097 -88.42112 40116 ft 366 kts 279°
2026-05-03 22:57 28.47229 -88.47741 40115 ft 366 kts 279°
2026-05-03 22:57 28.48365 -88.53402 40119 ft 367 kts 280°
2026-05-03 22:58 28.49502 -88.59084 40120 ft 367 kts 280°
2026-05-03 22:58 28.50631 -88.64734 40118 ft 367 kts 281°
2026-05-03 22:59 28.51768 -88.70441 40119 ft 368 kts 280°
2026-05-03 22:59 28.52902 -88.76144 40126 ft 367 kts 279°
2026-05-03 23:00 28.54026 -88.81814 40124 ft 367 kts 280°
2026-05-03 23:00 28.55147 -88.87480 40121 ft 367 kts 280°
2026-05-03 23:01 28.56262 -88.93130 40122 ft 368 kts 280°
2026-05-03 23:01 28.57388 -88.98845 40117 ft 369 kts 280°
2026-05-03 23:02 28.58502 -89.04515 40115 ft 369 kts 281°
2026-05-03 23:02 28.59620 -89.10220 40112 ft 369 kts 280°
2026-05-03 23:03 28.60743 -89.15962 40112 ft 368 kts 280°
2026-05-03 23:03 28.61851 -89.21643 40113 ft 369 kts 281°
2026-05-03 23:04 28.62964 -89.27362 40113 ft 370 kts 280°
2026-05-03 23:04 28.64074 -89.33084 40112 ft 370 kts 281°
2026-05-03 23:05 28.65185 -89.38818 40116 ft 369 kts 281°
2026-05-03 23:05 28.66286 -89.44512 40117 ft 370 kts 281°
2026-05-03 23:06 28.67393 -89.50256 40113 ft 370 kts 282°
2026-05-03 23:06 28.68490 -89.55960 40113 ft 370 kts 282°
2026-05-03 23:07 28.69591 -89.61695 40111 ft 370 kts 282°
2026-05-03 23:07 28.70686 -89.67419 40111 ft 371 kts 281°
2026-05-03 23:08 28.71789 -89.73193 40115 ft 371 kts 281°
2026-05-03 23:08 28.72883 -89.78937 40103 ft 370 kts 281°
2026-05-03 23:09 28.73972 -89.84667 40107 ft 370 kts 282°
2026-05-03 23:09 28.75057 -89.90385 40105 ft 370 kts 282°
2026-05-03 23:10 28.76135 -89.96082 40109 ft 369 kts 281°
2026-05-03 23:10 28.77221 -90.01837 40116 ft 369 kts 282°
2026-05-03 23:11 28.78301 -90.07576 40112 ft 370 kts 282°
2026-05-03 23:11 28.79380 -90.13324 40112 ft 370 kts 282°
2026-05-03 23:12 28.80485 -90.19224 40112 ft 369 kts 282°
2026-05-03 23:12 28.81622 -90.25305 40113 ft 369 kts 282°
2026-05-03 23:13 28.82690 -90.31036 40110 ft 369 kts 282°
2026-05-03 23:13 28.83751 -90.36736 40112 ft 369 kts 282°
2026-05-03 23:14 28.84816 -90.42477 40113 ft 368 kts 282°
2026-05-03 23:14 28.85872 -90.48183 40112 ft 368 kts 282°
2026-05-03 23:15 28.86929 -90.53912 40109 ft 369 kts 282°
2026-05-03 23:15 28.87990 -90.59671 40114 ft 368 kts 282°
2026-05-03 23:16 28.89040 -90.65387 40114 ft 368 kts 282°
2026-05-03 23:16 28.90088 -90.71106 40114 ft 369 kts 282°
2026-05-03 23:17 28.91137 -90.76839 40113 ft 369 kts 282°
2026-05-03 23:17 28.92190 -90.82616 40114 ft 369 kts 282°
2026-05-03 23:18 28.93230 -90.88330 40111 ft 367 kts 282°
2026-05-03 23:18 28.94264 -90.94026 40112 ft 367 kts 282°
2026-05-03 23:19 28.95303 -90.99760 40110 ft 368 kts 282°
2026-05-03 23:19 28.96331 -91.05450 40111 ft 368 kts 283°
2026-05-03 23:20 28.97368 -91.11204 40111 ft 369 kts 282°
2026-05-03 23:20 28.98396 -91.16924 40113 ft 369 kts 283°
2026-05-03 23:21 28.99431 -91.22695 40114 ft 369 kts 283°
2026-05-03 23:21 29.00458 -91.28434 40114 ft 369 kts 283°
2026-05-03 23:22 29.01994 -91.37049 40111 ft 368 kts 283°
2026-05-03 23:22 29.03016 -91.42792 40112 ft 368 kts 283°
2026-05-03 23:23 29.04032 -91.48521 40112 ft 368 kts 283°
2026-05-03 23:23 29.05044 -91.54239 40112 ft 367 kts 283°
2026-05-03 23:24 29.06051 -91.59949 40113 ft 367 kts 283°
2026-05-03 23:24 29.07065 -91.65708 40112 ft 368 kts 283°
2026-05-03 23:25 29.08070 -91.71433 40109 ft 368 kts 283°
2026-05-03 23:25 29.09078 -91.77184 40113 ft 368 kts 283°
2026-05-03 23:26 29.10084 -91.82945 40112 ft 368 kts 283°
2026-05-03 23:26 29.11080 -91.88662 40114 ft 368 kts 283°
2026-05-03 23:27 29.12081 -91.94420 40114 ft 368 kts 283°
2026-05-03 23:27 29.13081 -92.00186 40110 ft 368 kts 283°
2026-05-03 23:28 29.14071 -92.05913 40110 ft 368 kts 283°
2026-05-03 23:28 29.15063 -92.11664 40113 ft 368 kts 283°
2026-05-03 23:29 29.16050 -92.17401 40115 ft 368 kts 283°
2026-05-03 23:29 29.17037 -92.23149 40114 ft 368 kts 283°
2026-05-03 23:30 29.18020 -92.28892 40116 ft 367 kts 284°
2026-05-03 23:30 29.18999 -92.34628 40111 ft 367 kts 283°
2026-05-03 23:31 29.19978 -92.40379 40113 ft 366 kts 283°
2026-05-03 23:31 29.20950 -92.46101 40111 ft 366 kts 284°
2026-05-03 23:32 29.21919 -92.51819 40115 ft 365 kts 284°
2026-05-03 23:32 29.22879 -92.57506 40122 ft 365 kts 284°
2026-05-03 23:33 29.23841 -92.63215 40111 ft 365 kts 284°
2026-05-03 23:33 29.24806 -92.68951 40114 ft 366 kts 283°
2026-05-03 23:34 29.25764 -92.74670 40126 ft 365 kts 283°
2026-05-03 23:34 29.26720 -92.80389 40124 ft 364 kts 284°
2026-05-03 23:35 29.27669 -92.86085 40129 ft 364 kts 284°
2026-05-03 23:35 29.28612 -92.91756 40127 ft 363 kts 284°
2026-05-03 23:36 29.29558 -92.97459 40128 ft 363 kts 284°
2026-05-03 23:36 29.30498 -93.03143 40123 ft 363 kts 284°
2026-05-03 23:37 29.31430 -93.08794 40125 ft 363 kts 284°
2026-05-03 23:37 29.32369 -93.14497 40122 ft 363 kts 284°
2026-05-03 23:38 29.33299 -93.20167 40130 ft 363 kts 284°
2026-05-03 23:38 29.34235 -93.25888 40117 ft 363 kts 284°
2026-05-03 23:39 29.35164 -93.31580 40115 ft 363 kts 284°
2026-05-03 23:39 29.36092 -93.37283 40120 ft 363 kts 284°
2026-05-03 23:40 29.37016 -93.42977 40120 ft 363 kts 284°
2026-05-03 23:40 29.37934 -93.48653 40121 ft 363 kts 285°
2026-05-03 23:41 29.38860 -93.54391 40114 ft 363 kts 284°
2026-05-03 23:41 29.39770 -93.60046 40120 ft 362 kts 285°
2026-05-03 23:42 29.40681 -93.65722 40117 ft 362 kts 284°
2026-05-03 23:42 29.41599 -93.71455 40116 ft 364 kts 284°
2026-05-03 23:43 29.42504 -93.77127 40115 ft 363 kts 284°
2026-05-03 23:43 29.43413 -93.82845 40115 ft 362 kts 284°
2026-05-03 23:44 29.44313 -93.88518 40118 ft 362 kts 284°
2026-05-03 23:44 29.45212 -93.94198 40115 ft 362 kts 285°
2026-05-03 23:45 29.46113 -93.99905 40117 ft 362 kts 284°
2026-05-03 23:45 29.47003 -94.05566 40108 ft 362 kts 284°
2026-05-03 23:46 29.47892 -94.11230 40115 ft 361 kts 284°
2026-05-03 23:46 29.48783 -94.16929 40112 ft 361 kts 285°
2026-05-03 23:47 29.49667 -94.22599 40109 ft 361 kts 285°
2026-05-03 23:47 29.50550 -94.28278 40113 ft 361 kts 285°
2026-05-03 23:48 29.51431 -94.33957 40109 ft 362 kts 285°
2026-05-03 23:48 29.52310 -94.39645 40103 ft 362 kts 285°
2026-05-03 23:49 29.53185 -94.45322 40111 ft 361 kts 284°
2026-05-03 23:49 29.54057 -94.50994 40105 ft 361 kts 285°
2026-05-03 23:50 29.54786 -94.55756 40107 ft 361 kts 285°
2026-05-03 23:50 29.55802 -94.62404 40103 ft 361 kts 285°
2026-05-03 23:51 29.56670 -94.68100 40105 ft 362 kts 284°
2026-05-03 23:51 29.57538 -94.73818 40107 ft 363 kts 284°
2026-05-03 23:52 29.58402 -94.79525 40101 ft 363 kts 284°
2026-05-03 23:52 29.59257 -94.85195 40103 ft 361 kts 284°
2026-05-03 23:53 29.60117 -94.90913 40104 ft 361 kts 285°
2026-05-03 23:53 29.60967 -94.96581 40113 ft 361 kts 284°
2026-05-03 23:54 29.61818 -95.02268 40108 ft 362 kts 285°
2026-05-03 23:54 29.62669 -95.07977 40110 ft 361 kts 284°
2026-05-03 23:55 29.63517 -95.13683 40109 ft 361 kts 284°
2026-05-03 23:55 29.64359 -95.19370 40112 ft 361 kts 284°
2026-05-03 23:56 29.65202 -95.25082 40111 ft 361 kts 285°
2026-05-03 23:56 29.66031 -95.30775 40106 ft 361 kts 284°
2026-05-03 23:57 29.66849 -95.36494 40110 ft 360 kts 284°
2026-05-03 23:57 29.67664 -95.42200 40104 ft 361 kts 284°
2026-05-03 23:58 29.68474 -95.47893 40099 ft 361 kts 284°
2026-05-03 23:58 29.68876 -95.50726 39983 ft 358 kts 284°
2026-05-03 23:58 29.69271 -95.53530 39585 ft 352 kts 284°
2026-05-03 23:59 29.69659 -95.56280 38762 ft 352 kts 284°
2026-05-03 23:59 29.70054 -95.59081 37663 ft 357 kts 285°
2026-05-03 23:59 29.70453 -95.61910 36823 ft 355 kts 284°
2026-05-03 23:59 29.70840 -95.64675 36279 ft 355 kts 284°
2026-05-04 00:00 29.71237 -95.67497 35844 ft 361 kts 284°
2026-05-04 00:00 29.71633 -95.70367 35354 ft 367 kts 283°
2026-05-04 00:00 29.72026 -95.73280 34863 ft 371 kts 283°
2026-05-04 00:00 29.72422 -95.76239 34363 ft 373 kts 283°
2026-05-04 00:01 29.72819 -95.79206 33867 ft 376 kts 283°
2026-05-04 00:01 29.73213 -95.82158 33379 ft 378 kts 282°
2026-05-04 00:01 29.73613 -95.85162 32865 ft 380 kts 283°
2026-05-04 00:01 29.74015 -95.88185 32361 ft 382 kts 283°
2026-05-04 00:02 29.74417 -95.91215 31847 ft 384 kts 282°
2026-05-04 00:02 29.74819 -95.94248 31343 ft 386 kts 282°
2026-05-04 00:02 29.75221 -95.97294 30826 ft 387 kts 282°
2026-05-04 00:02 29.75624 -96.00350 30317 ft 388 kts 282°
2026-05-04 00:03 29.76027 -96.03419 29801 ft 385 kts 282°
2026-05-04 00:03 29.76428 -96.06484 29291 ft 383 kts 282°
2026-05-04 00:03 29.76824 -96.09512 28783 ft 381 kts 282°
2026-05-04 00:03 29.77215 -96.12502 28273 ft 379 kts 282°
2026-05-04 00:04 29.77606 -96.15502 27773 ft 376 kts 281°
2026-05-04 00:04 29.77958 -96.18491 27274 ft 375 kts 279°
2026-05-04 00:04 29.78193 -96.21476 26771 ft 375 kts 278°
2026-05-04 00:04 29.78418 -96.24442 26280 ft 374 kts 278°
2026-05-04 00:05 29.78648 -96.27454 25773 ft 372 kts 278°
2026-05-04 00:05 29.78871 -96.30403 25286 ft 371 kts 277°
2026-05-04 00:05 29.79094 -96.33356 24786 ft 370 kts 277°
2026-05-04 00:05 29.79316 -96.36313 24296 ft 369 kts 277°
2026-05-04 00:06 29.79534 -96.39223 23809 ft 367 kts 277°
2026-05-04 00:06 29.79753 -96.42160 23313 ft 366 kts 277°
2026-05-04 00:06 29.79969 -96.45066 22829 ft 365 kts 277°
2026-05-04 00:06 29.80185 -96.47994 22331 ft 364 kts 277°
2026-05-04 00:07 29.80399 -96.50889 21859 ft 363 kts 277°
2026-05-04 00:07 29.80617 -96.53818 21370 ft 362 kts 277°
2026-05-04 00:07 29.81164 -96.56615 20892 ft 359 kts 291°
2026-05-04 00:07 29.82429 -96.59089 20395 ft 360 kts 307°
2026-05-04 00:08 29.84114 -96.61221 19881 ft 361 kts 311°
2026-05-04 00:08 29.85828 -96.63329 19416 ft 360 kts 311°
2026-05-04 00:08 29.87551 -96.65455 18936 ft 361 kts 311°
2026-05-04 00:08 29.89260 -96.67565 18457 ft 359 kts 311°
2026-05-04 00:09 29.90985 -96.69698 17975 ft 359 kts 311°
2026-05-04 00:09 29.92679 -96.71794 17508 ft 358 kts 311°
2026-05-04 00:09 29.94370 -96.73888 17030 ft 356 kts 311°
2026-05-04 00:09 29.96066 -96.75988 16549 ft 352 kts 311°
2026-05-04 00:10 29.97721 -96.78039 16090 ft 348 kts 311°
2026-05-04 00:10 29.99357 -96.80068 15633 ft 343 kts 311°
2026-05-04 00:10 30.00988 -96.82093 15176 ft 339 kts 311°
2026-05-04 00:10 30.02574 -96.84062 14735 ft 334 kts 311°
2026-05-04 00:11 30.04150 -96.86041 14297 ft 331 kts 309°
2026-05-04 00:11 30.05337 -96.88289 13835 ft 330 kts 292°
2026-05-04 00:11 30.06110 -96.90792 13380 ft 327 kts 289°
2026-05-04 00:11 30.06852 -96.93266 13072 ft 330 kts 289°
2026-05-04 00:12 30.07613 -96.95798 12698 ft 329 kts 289°
2026-05-04 00:12 30.08363 -96.98292 12315 ft 327 kts 289°
2026-05-04 00:12 30.09108 -97.00771 11986 ft 323 kts 289°
2026-05-04 00:12 30.09835 -97.03193 11599 ft 317 kts 289°
2026-05-04 00:13 30.10550 -97.05576 11272 ft 309 kts 289°
2026-05-04 00:13 30.11246 -97.07902 10917 ft 301 kts 289°
2026-05-04 00:13 30.11925 -97.10171 10583 ft 294 kts 289°
2026-05-04 00:13 30.12587 -97.12384 10252 ft 288 kts 289°
2026-05-04 00:14 30.13231 -97.14542 9936 ft 281 kts 289°
2026-05-04 00:14 30.13866 -97.16670 9624 ft 278 kts 289°
2026-05-04 00:14 30.14501 -97.18798 9307 ft 278 kts 289°
2026-05-04 00:14 30.15123 -97.20885 8990 ft 277 kts 289°
2026-05-04 00:15 30.15759 -97.23015 8687 ft 276 kts 289°
2026-05-04 00:15 30.16378 -97.25094 8382 ft 276 kts 288°
2026-05-04 00:15 30.17003 -97.27190 8067 ft 275 kts 288°
2026-05-04 00:15 30.17677 -97.29262 7763 ft 272 kts 291°
2026-05-04 00:16 30.18422 -97.31274 7457 ft 268 kts 292°
2026-05-04 00:16 30.19144 -97.33225 7170 ft 263 kts 291°
2026-05-04 00:16 30.19868 -97.35182 6866 ft 259 kts 291°
2026-05-04 00:16 30.20565 -97.37067 6604 ft 255 kts 291°
2026-05-04 00:17 30.21272 -97.38957 6301 ft 253 kts 292°
2026-05-04 00:17 30.22010 -97.40809 6018 ft 252 kts 292°
2026-05-04 00:17 30.22747 -97.42645 5737 ft 252 kts 292°
2026-05-04 00:17 30.23491 -97.44498 5450 ft 251 kts 292°
2026-05-04 00:18 30.24217 -97.46310 5180 ft 248 kts 292°
2026-05-04 00:18 30.24939 -97.48111 4904 ft 244 kts 293°
2026-05-04 00:18 30.25648 -97.49880 4639 ft 239 kts 293°
2026-05-04 00:18 30.26344 -97.51615 4370 ft 234 kts 293°
2026-05-04 00:19 30.27025 -97.53316 4118 ft 230 kts 293°
2026-05-04 00:19 30.27935 -97.54811 3980 ft 230 kts 315°
2026-05-04 00:19 30.29159 -97.56059 3978 ft 234 kts 317°
2026-05-04 00:19 30.30526 -97.57067 3891 ft 229 kts 341°
2026-05-04 00:20 30.32119 -97.57315 3501 ft 232 kts 359°
2026-05-04 00:20 30.33689 -97.57759 3108 ft 235 kts 328°
2026-05-04 00:20 30.34758 -97.59133 2755 ft 231 kts 289°
2026-05-04 00:20 30.35083 -97.60928 2447 ft 225 kts 271°
2026-05-04 00:21 30.34835 -97.62665 2121 ft 215 kts 237°
2026-05-04 00:21 30.33833 -97.63879 1966 ft 211 kts 215°
2026-05-04 00:21 30.32633 -97.64908 1988 ft 212 kts 213°
2026-05-04 00:21 30.31456 -97.65848 1989 ft 209 kts 204°
2026-05-04 00:22 30.30048 -97.66114 1987 ft 203 kts 174°
2026-05-04 00:22 30.28670 -97.66004 2053 ft 188 kts 176°
2026-05-04 00:22 30.27389 -97.65974 1810 ft 175 kts 177°
2026-05-04 00:22 30.26270 -97.65947 1617 ft 148 kts 177°
2026-05-04 00:23 30.25321 -97.65923 1473 ft 128 kts 176°
2026-05-04 00:23 30.24435 -97.65898 1287 ft 124 kts 176°
2026-05-04 00:23 30.23574 -97.65872 1130 ft 122 kts 176°
2026-05-04 00:23 30.22723 -97.65842 982 ft 122 kts 176°
2026-05-04 00:24 30.21888 -97.65826 819 ft 119 kts 177°
2026-05-04 00:24 30.21054 -97.65804 668 ft 122 kts 177°
2026-05-04 00:24 30.20213 -97.65786 510 ft 116 kts 176°
2026-05-04 00:24 30.19470 -97.65764 482 ft 93 kts 176°
2026-05-04 00:25 30.18994 -97.65754 480 ft 44 kts 180°
2026-05-04 00:25 30.18704 -97.65756 482 ft 36 kts 186°
2026-05-04 00:25 30.18549 -97.65813 484 ft 12 kts 215°
2026-05-04 00:25 30.18518 -97.65894 485 ft 12 kts 268°
2026-05-04 00:26 30.18516 -97.65993 485 ft 12 kts 268°
2026-05-04 00:26 30.18514 -97.66069 485 ft 8 kts 268°
2026-05-04 00:26 30.18512 -97.66122 485 ft 7 kts 267°
2026-05-04 00:26 30.18512 -97.66180 485 ft 6 kts 279°
2026-05-04 00:27 30.18554 -97.66201 485 ft 8 kts
2026-05-04 00:27 30.18604 -97.66200 485 ft 0 kts 360°